Time,TemperatureF,DewpointF,PressureIn,WindDirection,WindDirectionDegrees,WindSpeedMPH,WindSpeedGustMPH,Humidity,HourlyPrecipIn,Conditions,Clouds,dailyrainin,SolarRadiationWatts/m^2,SoftwareType,DateUTC
2013-05-12 00:02:00,48.0,28.0,-100.00,NW,320,2.0,9.0,45,0.00,,,0.00,11.000000,,2013-05-12 08:02:00,
2013-05-12 00:11:00,48.0,28.0,-100.00,NW,320,2.0,9.0,45,0.00,,,0.00,11.000000,,2013-05-12 08:11:00,
2013-05-12 00:42:00,47.0,26.0,-100.00,NNW,348,3.0,11.0,43,0.00,,,0.00,0.000000,,2013-05-12 08:42:00,
2013-05-12 00:53:00,47.0,26.0,-100.00,NNW,348,3.0,11.0,43,0.00,,,0.00,0.000000,,2013-05-12 08:53:00,
2013-05-12 01:01:00,47.0,26.0,-100.00,NNW,348,3.0,11.0,43,0.00,,,0.00,0.000000,,2013-05-12 09:01:00,
2013-05-12 01:11:00,47.0,26.0,-100.00,NNW,348,3.0,11.0,43,0.00,,,0.00,0.000000,,2013-05-12 09:11:00,
2013-05-12 01:43:00,45.0,27.0,-100.00,NNW,341,2.0,9.0,48,0.00,,,0.00,0.000000,,2013-05-12 09:43:00,
2013-05-12 01:53:00,45.0,27.0,-100.00,NNW,341,2.0,9.0,48,0.00,,,0.00,0.000000,,2013-05-12 09:53:00,
2013-05-12 02:03:00,45.0,27.0,-100.00,NNW,341,2.0,9.0,48,0.00,,,0.00,0.000000,,2013-05-12 10:03:00,
2013-05-12 02:12:00,45.0,27.0,-100.00,NNW,341,2.0,9.0,48,0.00,,,0.00,0.000000,,2013-05-12 10:12:00,
2013-05-12 02:42:00,43.0,27.0,-100.00,NW,317,2.0,9.0,53,0.00,,,0.00,0.000000,,2013-05-12 10:42:00,
2013-05-12 02:52:00,43.0,27.0,-100.00,NW,317,2.0,9.0,53,0.00,,,0.00,0.000000,,2013-05-12 10:52:00,
2013-05-12 03:02:00,43.0,27.0,-100.00,NW,317,2.0,9.0,53,0.00,,,0.00,0.000000,,2013-05-12 11:02:00,
2013-05-12 03:11:00,43.0,27.0,-100.00,NW,317,2.0,9.0,53,0.00,,,0.00,0.000000,,2013-05-12 11:11:00,
2013-05-12 03:42:00,42.0,25.0,-100.00,South,186,0.0,8.0,51,0.00,,,0.00,0.000000,,2013-05-12 11:42:00,
2013-05-12 03:52:00,42.0,25.0,-100.00,South,186,0.0,8.0,51,0.00,,,0.00,0.000000,,2013-05-12 11:52:00,
2013-05-12 04:01:00,42.0,25.0,-100.00,South,186,0.0,8.0,51,0.00,,,0.00,0.000000,,2013-05-12 12:01:00,
2013-05-12 04:11:00,42.0,25.0,-100.00,South,186,0.0,8.0,51,0.00,,,0.00,0.000000,,2013-05-12 12:11:00,
2013-05-12 04:42:00,37.0,26.0,-100.00,WSW,238,0.0,4.0,64,0.00,,,0.00,0.000000,,2013-05-12 12:42:00,
2013-05-12 04:52:00,37.0,26.0,-100.00,WSW,238,0.0,4.0,64,0.00,,,0.00,0.000000,,2013-05-12 12:52:00,
2013-05-12 05:01:00,37.0,26.0,-100.00,WSW,238,0.0,4.0,64,0.00,,,0.00,0.000000,,2013-05-12 13:01:00,
2013-05-12 05:11:00,37.0,26.0,-100.00,WSW,238,0.0,4.0,64,0.00,,,0.00,0.000000,,2013-05-12 13:11:00,
2013-05-12 05:42:00,36.0,27.0,-100.00,East,95,0.0,2.0,70,0.00,,,0.00,5.000000,,2013-05-12 13:42:00,
2013-05-12 05:52:00,36.0,27.0,-100.00,East,95,0.0,2.0,70,0.00,,,0.00,5.000000,,2013-05-12 13:52:00,
2013-05-12 06:01:00,36.0,27.0,-100.00,East,95,0.0,2.0,70,0.00,,,0.00,5.000000,,2013-05-12 14:01:00,
2013-05-12 06:11:00,36.0,27.0,-100.00,East,95,0.0,2.0,70,0.00,,,0.00,5.000000,,2013-05-12 14:11:00,
2013-05-12 06:42:00,36.0,29.0,-100.00,ESE,123,1.0,3.0,74,0.00,,,0.00,23.000000,,2013-05-12 14:42:00,
2013-05-12 06:52:00,36.0,29.0,-100.00,ESE,123,1.0,3.0,74,0.00,,,0.00,23.000000,,2013-05-12 14:52:00,
2013-05-12 07:01:00,36.0,29.0,-100.00,ESE,123,1.0,3.0,74,0.00,,,0.00,23.000000,,2013-05-12 15:01:00,
2013-05-12 07:11:00,36.0,29.0,-100.00,ESE,123,1.0,3.0,74,0.00,,,0.00,23.000000,,2013-05-12 15:11:00,
2013-05-12 07:42:00,38.0,29.0,-100.00,ENE,78,2.0,6.0,69,0.00,,,0.00,71.000000,,2013-05-12 15:42:00,
2013-05-12 07:53:00,38.0,29.0,-100.00,ENE,78,2.0,6.0,69,0.00,,,0.00,71.000000,,2013-05-12 15:53:00,
2013-05-12 08:02:00,38.0,29.0,-100.00,ENE,78,2.0,6.0,69,0.00,,,0.00,71.000000,,2013-05-12 16:02:00,
2013-05-12 08:12:00,38.0,29.0,-100.00,ENE,78,2.0,6.0,69,0.00,,,0.00,71.000000,,2013-05-12 16:12:00,
2013-05-12 08:42:00,39.0,29.0,-100.00,ENE,67,2.0,4.0,67,0.00,,,0.00,119.000000,,2013-05-12 16:42:00,
2013-05-12 08:52:00,39.0,29.0,-100.00,ENE,67,2.0,4.0,67,0.00,,,0.00,119.000000,,2013-05-12 16:52:00,
2013-05-12 09:01:00,39.0,29.0,-100.00,ENE,67,2.0,4.0,67,0.00,,,0.00,119.000000,,2013-05-12 17:01:00,
2013-05-12 09:11:00,39.0,29.0,-100.00,ENE,67,2.0,4.0,67,0.00,,,0.00,119.000000,,2013-05-12 17:11:00,
2013-05-12 09:42:00,41.0,29.0,-100.00,ENE,71,2.0,5.0,61,0.00,,,0.00,190.000000,,2013-05-12 17:42:00,
2013-05-12 09:52:00,41.0,29.0,-100.00,ENE,71,2.0,5.0,61,0.00,,,0.00,190.000000,,2013-05-12 17:52:00,
2013-05-12 10:01:00,41.0,29.0,-100.00,ENE,71,2.0,5.0,61,0.00,,,0.00,190.000000,,2013-05-12 18:01:00,
2013-05-12 10:12:00,41.0,29.0,-100.00,ENE,71,2.0,5.0,61,0.00,,,0.00,190.000000,,2013-05-12 18:12:00,
2013-05-12 10:42:00,44.0,30.0,-100.00,NE,56,1.0,5.0,58,0.00,,,0.00,268.000000,,2013-05-12 18:42:00,
2013-05-12 10:52:00,44.0,30.0,-100.00,NE,56,1.0,5.0,58,0.00,,,0.00,268.000000,,2013-05-12 18:52:00,
2013-05-12 11:01:00,44.0,30.0,-100.00,NE,56,1.0,5.0,58,0.00,,,0.00,268.000000,,2013-05-12 19:01:00,
2013-05-12 11:11:00,44.0,30.0,-100.00,NE,56,1.0,5.0,58,0.00,,,0.00,268.000000,,2013-05-12 19:11:00,
2013-05-12 11:42:00,46.0,30.0,-100.00,SW,236,1.0,5.0,54,0.00,,,0.00,348.000000,,2013-05-12 19:42:00,
2013-05-12 11:52:00,46.0,30.0,-100.00,SW,236,1.0,5.0,54,0.00,,,0.00,348.000000,,2013-05-12 19:52:00,
2013-05-12 12:02:00,46.0,30.0,-100.00,SW,236,1.0,5.0,54,0.00,,,0.00,348.000000,,2013-05-12 20:02:00,
2013-05-12 12:11:00,46.0,30.0,-100.00,SW,236,1.0,5.0,54,0.00,,,0.00,348.000000,,2013-05-12 20:11:00,
2013-05-12 12:42:00,48.0,30.0,-100.00,SW,224,3.0,5.0,50,0.00,,,0.00,370.000000,,2013-05-12 20:42:00,
2013-05-12 12:52:00,48.0,30.0,-100.00,SW,224,3.0,5.0,50,0.00,,,0.00,370.000000,,2013-05-12 20:52:00,
2013-05-12 13:01:00,48.0,30.0,-100.00,SW,224,3.0,5.0,50,0.00,,,0.00,370.000000,,2013-05-12 21:01:00,
2013-05-12 13:11:00,48.0,30.0,-100.00,SW,224,3.0,5.0,50,0.00,,,0.00,370.000000,,2013-05-12 21:11:00,
2013-05-12 13:33:00,53.0,31.0,-100.00,SW,224,2.0,6.0,43,0.00,,,0.00,597.000000,,2013-05-12 21:33:00,
2013-05-12 13:42:00,53.0,31.0,-100.00,SW,224,2.0,6.0,43,0.00,,,0.00,597.000000,,2013-05-12 21:42:00,
2013-05-12 13:53:00,53.0,31.0,-100.00,SW,224,2.0,6.0,43,0.00,,,0.00,597.000000,,2013-05-12 21:53:00,
2013-05-12 14:02:00,53.0,31.0,-100.00,SW,224,2.0,6.0,43,0.00,,,0.00,597.000000,,2013-05-12 22:02:00,
2013-05-12 14:12:00,53.0,31.0,-100.00,SW,224,2.0,6.0,43,0.00,,,0.00,597.000000,,2013-05-12 22:12:00,
2013-05-12 14:42:00,54.0,28.0,-100.00,SSW,208,3.0,10.0,36,0.00,,,0.00,624.000000,,2013-05-12 22:42:00,
2013-05-12 14:52:00,54.0,28.0,-100.00,SSW,208,3.0,10.0,36,0.00,,,0.00,624.000000,,2013-05-12 22:52:00,
2013-05-12 15:02:00,54.0,28.0,-100.00,SSW,208,3.0,10.0,36,0.00,,,0.00,624.000000,,2013-05-12 23:02:00,
2013-05-12 15:11:00,54.0,28.0,-100.00,SSW,208,3.0,10.0,36,0.00,,,0.00,624.000000,,2013-05-12 23:11:00,
2013-05-12 15:42:00,55.0,26.0,-100.00,SW,219,4.0,13.0,33,0.00,,,0.00,862.000000,,2013-05-12 23:42:00,
2013-05-12 15:52:00,55.0,26.0,-100.00,SW,219,4.0,13.0,33,0.00,,,0.00,862.000000,,2013-05-12 23:52:00,
2013-05-12 16:01:00,55.0,26.0,-100.00,SW,219,4.0,13.0,33,0.00,,,0.00,862.000000,,2013-05-13 00:01:00,
2013-05-12 16:11:00,55.0,26.0,-100.00,SW,219,4.0,13.0,33,0.00,,,0.00,862.000000,,2013-05-13 00:11:00,
2013-05-12 16:42:00,54.0,24.0,-100.00,SSW,198,5.0,14.0,31,0.00,,,0.00,814.000000,,2013-05-13 00:42:00,
2013-05-12 16:52:00,54.0,24.0,-100.00,SSW,198,5.0,14.0,31,0.00,,,0.00,814.000000,,2013-05-13 00:52:00,
2013-05-12 17:01:00,54.0,24.0,-100.00,SSW,198,5.0,14.0,31,0.00,,,0.00,814.000000,,2013-05-13 01:01:00,
2013-05-12 17:11:00,54.0,24.0,-100.00,SSW,198,5.0,14.0,31,0.00,,,0.00,814.000000,,2013-05-13 01:11:00,
2013-05-12 17:42:00,55.0,22.0,-100.00,SSW,201,3.0,14.0,27,0.00,,,0.00,733.000000,,2013-05-13 01:42:00,
2013-05-12 17:52:00,55.0,22.0,-100.00,SSW,201,3.0,14.0,27,0.00,,,0.00,733.000000,,2013-05-13 01:52:00,
2013-05-12 18:01:00,55.0,22.0,-100.00,SSW,201,3.0,14.0,27,0.00,,,0.00,733.000000,,2013-05-13 02:01:00,
2013-05-12 18:11:00,55.0,22.0,-100.00,SSW,201,3.0,14.0,27,0.00,,,0.00,733.000000,,2013-05-13 02:11:00,
2013-05-12 18:32:00,56.0,27.0,-100.00,SW,226,3.0,13.0,32,0.00,,,0.00,624.000000,,2013-05-13 02:32:00,
2013-05-12 18:42:00,56.0,27.0,-100.00,SW,226,3.0,13.0,32,0.00,,,0.00,624.000000,,2013-05-13 02:42:00,
2013-05-12 18:52:00,56.0,27.0,-100.00,SW,226,3.0,13.0,32,0.00,,,0.00,624.000000,,2013-05-13 02:52:00,
2013-05-12 19:01:00,56.0,27.0,-100.00,SW,226,3.0,13.0,32,0.00,,,0.00,624.000000,,2013-05-13 03:01:00,
2013-05-12 19:11:00,56.0,27.0,-100.00,SW,226,3.0,13.0,32,0.00,,,0.00,624.000000,,2013-05-13 03:11:00,
2013-05-12 19:42:00,55.0,26.0,-100.00,SW,236,3.0,11.0,32,0.00,,,0.00,450.000000,,2013-05-13 03:42:00,
2013-05-12 19:53:00,55.0,26.0,-100.00,SW,236,3.0,11.0,32,0.00,,,0.00,450.000000,,2013-05-13 03:53:00,
2013-05-12 20:02:00,55.0,26.0,-100.00,SW,236,3.0,11.0,32,0.00,,,0.00,450.000000,,2013-05-13 04:02:00,
2013-05-12 20:12:00,55.0,26.0,-100.00,SW,236,3.0,11.0,32,0.00,,,0.00,450.000000,,2013-05-13 04:12:00,
2013-05-12 20:42:00,49.0,25.0,-100.00,West,270,1.0,10.0,39,0.00,,,0.00,123.000000,,2013-05-13 04:42:00,
2013-05-12 20:52:00,49.0,25.0,-100.00,West,270,1.0,10.0,39,0.00,,,0.00,123.000000,,2013-05-13 04:52:00,
2013-05-12 21:02:00,49.0,25.0,-100.00,West,270,1.0,10.0,39,0.00,,,0.00,123.000000,,2013-05-13 05:02:00,
2013-05-12 21:11:00,49.0,25.0,-100.00,West,270,1.0,10.0,39,0.00,,,0.00,123.000000,,2013-05-13 05:11:00,
2013-05-12 21:42:00,47.0,23.0,-100.00,West,274,4.0,16.0,39,0.00,,,0.00,46.000000,,2013-05-13 05:42:00,
2013-05-12 21:52:00,47.0,23.0,-100.00,West,274,4.0,16.0,39,0.00,,,0.00,46.000000,,2013-05-13 05:52:00,
2013-05-12 22:01:00,47.0,23.0,-100.00,West,274,4.0,16.0,39,0.00,,,0.00,46.000000,,2013-05-13 06:01:00,
2013-05-12 22:11:00,47.0,23.0,-100.00,West,274,4.0,16.0,39,0.00,,,0.00,46.000000,,2013-05-13 06:11:00,
2013-05-12 22:42:00,43.0,25.0,-100.00,WNW,288,3.0,11.0,48,0.00,,,0.00,34.000000,,2013-05-13 06:42:00,
2013-05-12 22:52:00,43.0,25.0,-100.00,WNW,288,3.0,11.0,48,0.00,,,0.00,34.000000,,2013-05-13 06:52:00,
2013-05-12 23:01:00,43.0,25.0,-100.00,WNW,288,3.0,11.0,48,0.00,,,0.00,34.000000,,2013-05-13 07:01:00,
2013-05-12 23:11:00,43.0,25.0,-100.00,WNW,288,3.0,11.0,48,0.00,,,0.00,34.000000,,2013-05-13 07:11:00,
2013-05-12 23:42:00,41.0,26.0,-100.00,WNW,292,4.0,11.0,55,0.00,,,0.00,4.000000,,2013-05-13 07:42:00,
2013-05-12 23:52:00,41.0,26.0,-100.00,WNW,292,4.0,11.0,55,0.00,,,0.00,4.000000,,2013-05-13 07:52:00,